Wind_Speed
23 24 24 25 25 25 25 24 24 23 23 24 25 26 26 26 26 27 27 29 28 29 29 31 31 31 32 33 33 34 35 36 36 36 37 38 38 38
23 23 23 24 24 24 23 23 23 22 21 22 24 25 25 24 25 26 26 27 28 28 28 29 29 29 30 31 31 32 33 34 36 35 36 37 37 38
23 23 24 24 24 23 22 22 22 21 21 21 22 22 23 22 22 23 24 25 26 26 26 27 27 27 28 28 29 30 31 32 34 35 36 36 37 38
22 23 23 22 22 22 22 21 21 21 20 20 20 21 21 21 22 23 24 24 25 25 26 26 25 26 26 27 28 29 30 31 31 32 33 34 35 36
21 21 21 21 21 21 21 20 20 20 19 19 19 20 20 21 20 21 22 23 24 24 24 24 24 24 25 26 26 27 28 29 30 30 31 33 34 34
20 20 20 20 20 19 19 19 19 19 19 19 19 19 19 19 20 21 20 21 21 22 22 23 23 24 24 24 25 25 26 27 29 30 31 32 33 33
19 20 19 19 19 19 19 19 19 19 19 19 19 20 20 20 20 20 20 21 20 21 21 22 23 23 23 23 24 25 25 25 26 29 30 30 31 32
19 20 20 20 19 19 18 18 18 18 18 18 19 19 20 21 21 20 19 20 20 20 21 21 22 22 23 24 24 25 25 25 25 26 27 28 29 30
19 20 19 19 19 19 19 19 19 19 19 19 20 19 19 20 21 21 21 20 20 20 20 20 20 21 21 22 23 24 24 24 25 26 26 27 28 28
19 19 19 20 20 19 19 19 20 20 20 20 20 20 20 20 21 21 21 21 20 19 20 19 19 19 20 20 22 22 23 24 24 25 26 27 27 28
19 20 20 20 20 21 20 20 20 20 20 21 21 20 20 21 21 20 21 21 21 20 21 20 19 19 19 20 21 22 22 23 23 24 25 26 26 27
19 20 21 21 22 22 22 21 21 20 21 21 21 21 21 22 21 20 21 21 21 21 21 21 21 20 20 19 20 21 22 22 22 23 24 25 26 26
20 21 21 21 22 22 22 22 22 22 22 22 21 22 22 23 22 22 22 22 22 22 22 22 21 21 21 21 21 21 22 22 23 23 24 25 26 27
21 21 21 22 23 23 23 24 24 24 23 22 22 22 23 23 23 23 23 23 23 23 22 22 22 22 22 22 22 22 22 22 23 24 25 26 26 27
21 22 23 24 24 24 25 25 26 26 25 24 24 25 24 24 24 23 22 23 23 23 22 22 22 23 23 23 22 23 23 24 25 25 26 26 26 27
22 23 24 24 25 26 26 26 27 26 26 26 26 26 25 25 24 23 23 22 22 22 23 23 23 23 23 23 24 24 25 25 26 26 26 26 27 27
24 25 25 26 26 27 27 27 28 27 27 27 27 26 25 25 24 23 23 22 22 22 22 23 24 23 23 23 24 25 25 26 26 27 28 28 28 29
25 26 26 27 27 27 28 29 28 28 28 28 27 27 25 25 24 24 24 24 24 23 22 23 23 23 23 24 25 25 25 26 26 27 28 29 29 29
26 27 28 28 29 29 30 29 28 27 28 28 27 26 25 24 24 25 25 24 24 23 23 23 23 24 24 23 24 25 25 26 27 28 28 29 29 29
28 28 29 30 30 30 30 29 28 28 28 28 27 26 26 25 25 24 24 24 24 24 24 24 23 23 24 24 23 23 25 26 27 28 29 29 29 30
29 29 30 31 31 31 30 29 29 28 28 27 27 26 26 26 25 24 24 24 24 24 24 23 23 24 24 24 24 24 25 27 28 29 29 30 30 30
30 30 31 31 31 31 30 30 29 29 28 28 27 27 26 26 25 24 24 24 23 24 23 23 23 24 24 25 25 25 26 26 27 28 29 30 30 31
31 32 32 32 31 31 31 30 29 29 29 28 28 27 27 26 25 25 24 24 23 24 24 24 25 25 26 26 26 26 26 27 27 28 29 30 31 32
Wind_Direction
305 305 306 304 301 299 297 293 290 289 286 284 282 279 276 274 272 269 266 263 265 264 263 261 260 260 259 259 258 255 251 248 246 245 245 245 244 244
305 306 308 309 306 304 300 296 292 289 288 286 284 279 274 273 272 270 267 267 268 267 266 263 261 259 258 257 256 254 251 250 249 249 246 244 243 243
308 310 310 310 309 308 304 300 296 294 292 290 286 280 275 273 274 272 269 268 268 268 265 263 262 260 261 260 258 254 252 250 249 249 248 245 243 243
311 312 312 312 311 310 308 306 301 296 293 293 290 284 281 278 275 273 271 271 270 269 267 265 265 264 262 260 259 256 253 250 249 249 249 246 244 244
314 315 315 316 315 313 311 309 305 302 298 297 294 291 286 281 280 277 276 274 271 269 268 266 266 265 264 262 259 257 253 251 249 248 248 248 247 245
315 316 317 318 317 317 315 313 311 308 304 302 298 294 289 285 282 279 277 276 274 272 270 268 267 267 266 263 258 255 253 251 250 248 248 249 249 247
319 318 318 318 317 317 316 314 311 310 308 305 301 295 292 290 288 284 280 276 277 276 273 271 267 266 265 263 260 257 255 253 251 249 248 249 248 249
322 321 320 319 317 315 315 315 313 310 305 303 303 298 293 291 289 287 285 282 279 276 276 275 273 268 264 263 261 258 257 255 253 251 249 250 249 247
324 324 324 321 319 317 315 313 311 310 307 304 302 300 300 295 291 289 288 288 284 281 279 277 274 270 266 262 259 259 257 255 253 251 251 251 249 247
326 327 326 324 322 319 316 313 311 309 308 305 303 301 301 301 296 292 289 287 284 283 280 278 275 271 267 264 263 262 260 257 255 253 252 251 252 250
325 326 327 326 325 321 318 316 314 313 311 309 306 302 300 301 298 293 290 287 284 281 279 277 276 274 271 267 266 265 262 259 256 254 253 252 251 250
326 325 324 324 325 324 322 320 318 314 311 310 307 303 300 299 298 295 292 289 285 281 278 277 275 275 273 271 269 266 263 260 258 256 254 252 252 252
328 326 325 325 325 325 324 323 321 318 314 311 308 306 303 299 297 297 294 290 287 284 279 276 275 274 271 269 268 266 264 262 258 257 256 256 255 254
327 326 326 325 325 324 324 323 321 319 316 312 309 307 306 302 296 294 292 291 289 285 280 276 273 272 270 268 268 266 265 262 260 259 258 257 256 255
329 328 326 325 324 323 321 320 320 318 316 313 310 307 305 304 300 294 291 289 287 284 283 278 276 273 271 270 268 268 267 265 264 262 260 258 258 257
328 328 327 325 324 324 323 321 319 318 315 313 311 308 305 304 301 295 291 289 287 285 283 282 278 276 273 273 270 269 269 267 265 263 261 258 258 259
328 328 329 327 325 325 324 323 321 318 316 315 313 311 307 304 301 298 294 291 289 286 284 281 278 276 273 272 271 271 270 266 264 263 261 259 258 259
330 331 331 330 328 326 325 323 321 319 319 317 315 313 310 306 303 300 296 293 291 289 285 283 279 275 273 272 271 270 269 266 264 264 263 261 260 259
331 331 331 331 330 328 326 325 323 321 320 319 317 315 312 309 304 300 297 295 293 290 287 284 280 276 273 270 270 269 269 268 265 264 265 265 263 261
331 331 331 331 330 329 328 326 325 324 322 321 319 317 315 312 309 304 300 297 294 291 289 287 283 278 274 271 270 269 268 268 268 267 267 266 265 263
332 331 331 331 331 331 329 328 327 325 324 323 321 318 316 313 309 306 302 299 296 293 291 288 284 281 279 277 275 273 271 270 270 269 268 266 266 265
333 332 331 331 331 330 329 329 327 326 325 324 322 321 319 316 313 309 305 302 298 295 291 288 286 285 283 280 279 277 275 274 273 271 269 268 269 267
334 334 332 331 331 331 330 329 328 327 325 324 324 323 321 318 315 311 308 304 299 296 294 291 287 284 283 281 280 279 278 277 276 275 272 271 270 270
Height
5744 5741 5737 5734 5731 5728 5726 5724 5722 5721 5719 5717 5715 5714 5713 5712 5712 5712 5712 5712 5712 5713 5713 5713 5713 5714 5715 5715 5716 5717 5719 5722 5724 5727 5730 5734 5737 5740
5739 5735 5732 5728 5725 5722 5720 5717 5715 5714 5712 5710 5708 5707 5706 5705 5705 5705 5704 5704 5704 5704 5705 5705 5705 5705 5706 5706 5707 5708 5710 5712 5715 5718 5721 5724 5728 5731
5734 5730 5727 5723 5720 5717 5714 5711 5709 5707 5706 5704 5702 5700 5699 5698 5698 5697 5697 5697 5697 5696 5696 5697 5697 5697 5697 5698 5699 5700 5702 5704 5706 5709 5712 5715 5718 5722
5729 5725 5722 5719 5715 5712 5709 5706 5703 5701 5699 5698 5696 5694 5693 5692 5691 5691 5690 5690 5689 5689 5689 5689 5689 5689 5689 5690 5691 5692 5694 5696 5698 5700 5703 5706 5709 5711
5724 5721 5718 5714 5711 5707 5704 5701 5699 5696 5694 5693 5691 5689 5688 5686 5685 5684 5683 5683 5682 5682 5682 5682 5682 5682 5682 5683 5684 5685 5686 5688 5690 5692 5694 5697 5700 5702
5720 5717 5713 5710 5707 5703 5700 5697 5695 5692 5690 5688 5686 5684 5683 5681 5680 5678 5677 5676 5675 5675 5675 5675 5675 5675 5675 5676 5677 5678 5678 5680 5682 5684 5686 5689 5691 5693
5716 5713 5709 5706 5703 5700 5697 5694 5691 5688 5686 5683 5682 5680 5678 5676 5674 5673 5671 5670 5670 5669 5668 5668 5668 5668 5669 5669 5670 5671 5671 5672 5673 5675 5678 5680 5683 5685
5712 5709 5705 5702 5699 5696 5693 5690 5687 5684 5682 5679 5677 5675 5673 5671 5669 5667 5666 5665 5664 5664 5662 5662 5661 5661 5662 5663 5663 5664 5664 5665 5667 5668 5670 5672 5674 5677
5708 5705 5702 5698 5695 5692 5689 5686 5683 5680 5677 5675 5673 5670 5668 5665 5664 5662 5661 5659 5658 5657 5656 5656 5656 5655 5655 5656 5656 5657 5658 5658 5659 5661 5663 5665 5667 5669
5705 5701 5698 5694 5691 5688 5685 5682 5679 5676 5673 5670 5667 5665 5663 5660 5658 5656 5655 5654 5653 5651 5650 5650 5650 5649 5649 5649 5649 5650 5650 5651 5652 5654 5656 5657 5659 5661
5702 5698 5694 5691 5687 5684 5681 5678 5675 5672 5668 5665 5662 5660 5657 5655 5652 5650 5649 5648 5647 5646 5645 5644 5643 5643 5643 5643 5643 5643 5643 5644 5645 5647 5648 5650 5652 5653
5698 5695 5691 5687 5684 5680 5677 5673 5670 5667 5664 5660 5657 5655 5652 5649 5647 5644 5643 5641 5640 5640 5638 5637 5637 5636 5637 5637 5637 5637 5637 5637 5639 5640 5641 5643 5644 5646
5695 5691 5687 5684 5680 5676 5673 5669 5665 5661 5658 5655 5652 5649 5646 5643 5641 5638 5636 5635 5633 5632 5631 5630 5630 5629 5629 5630 5631 5630 5630 5631 5632 5633 5634 5635 5637 5638
5691 5687 5684 5680 5676 5672 5668 5664 5660 5656 5652 5649 5646 5643 5640 5637 5634 5632 5629 5627 5626 5625 5623 5623 5622 5622 5622 5622 5623 5623 5623 5624 5625 5626 5626 5627 5629 5630
5688 5684 5680 5676 5671 5668 5663 5659 5655 5651 5647 5643 5639 5636 5633 5630 5627 5624 5622 5620 5618 5617 5615 5615 5614 5614 5614 5614 5615 5615 5616 5616 5617 5617 5618 5619 5621 5622
5684 5679 5675 5671 5667 5662 5658 5653 5649 5644 5640 5636 5633 5629 5625 5622 5619 5617 5614 5612 5611 5609 5608 5607 5606 5606 5606 5606 5607 5607 5607 5608 5609 5609 5610 5611 5612 5613
5680 5675 5671 5666 5662 5657 5652 5647 5643 5638 5634 5629 5625 5621 5618 5615 5612 5609 5607 5604 5603 5602 5601 5600 5599 5598 5598 5598 5599 5599 5599 5599 5600 5600 5601 5602 5603 5604
5675 5670 5666 5661 5656 5651 5647 5642 5637 5632 5628 5623 5619 5614 5611 5607 5605 5602 5599 5597 5595 5594 5592 5591 5590 5590 5591 5591 5591 5590 5590 5590 5591 5591 5591 5593 5594 5594
5671 5666 5661 5656 5651 5646 5641 5635 5631 5626 5621 5617 5612 5608 5604 5600 5597 5595 5592 5590 5588 5586 5585 5583 5582 5582 5582 5582 5582 5581 5581 5581 5582 5582 5582 5583 5584 5585
5667 5661 5656 5651 5645 5640 5635 5629 5624 5620 5615 5610 5606 5601 5597 5594 5590 5587 5585 5582 5580 5579 5577 5576 5574 5573 5573 5573 5573 5573 5572 5572 5572 5572 5573 5573 5573 5574
5662 5657 5651 5645 5640 5634 5628 5623 5618 5613 5609 5604 5600 5595 5591 5587 5583 5580 5577 5575 5573 5571 5569 5568 5566 5565 5564 5564 5564 5564 5564 5562 5562 5562 5562 5562 5563 5563
5657 5652 5646 5640 5634 5628 5623 5618 5613 5608 5603 5598 5593 5589 5584 5580 5577 5573 5570 5568 5565 5563 5561 5560 5558 5557 5556 5555 5554 5554 5554 5553 5552 5551 5551 5552 5551 5552
5653 5647 5641 5635 5628 5623 5617 5612 5607 5602 5596 5592 5587 5582 5578 5574 5570 5566 5563 5560 5557 5555 5553 5552 5550 5549 5547 5546 5545 5544 5544 5543 5542 5542 5541 5540 5540 5540